Regional Weather Roundup
Issued by NWS

Home | Current Version | Previous Version | Graphics & Text | Print | Product List | Glossary On
Versions: 1 2 3 4 5 6 7 8 9 10 11 12 13 14 15 16 17 18 19 20 21 22 23 24 25 26 27 28 29 30 31 32 33 34 35 36 37 38 39 40 41 42 43 44 45 46 47 48 49 50
000
ASUS45 KABQ 242201
RWRNM
NEW MEXICO REGIONAL WEATHER ROUNDUP
NATIONAL WEATHER SERVICE ALBUQUERQUE NM
400 PM MDT TUE MAY 24 2016

NOTE: "FAIR" MEANS FEW OR NO CLOUDS BELOW 12,000 FEET AGL WITH NO
       SIGNIFICANT WEATHER OR OBSTRUCTIONS TO VISION.

      THIS PRODUCT IS RELEASED AS TWO VERSIONS.  ONE VERSION NEAR
      THE TOP OF THE HOUR CONTAINING PRELIMINARY DATA FROM ALBUQUERQUE
      AND OTHER STATIONS.  A FINAL VERSION WITH ADDITIONAL DATA IS
      ISSUED ABOUT 10 MINUTES AFTER THE HOUR.

NMZ501-503-504-510>518-242300-
NORTHWEST PLATEAU/NORTHCENTRAL MOUNTAINS

CITY           SKY/WX    TMP DP  RH WIND       PRES   REMARKS
FARMINGTON     FAIR      78  10   7 SW17G31   29.91F
SANTA FE       FAIR      76  17  11 SW21G28   30.00F
TAOS           FAIR      73  19  13 W18G30    30.02F

$$
NMZ402-403-502-505>509-242300-
WESTCENTRAL MOUNTAINS/SOUTHWEST MOUNTAINS

CITY           SKY/WX    TMP DP  RH WIND       PRES   REMARKS
GALLUP         FAIR      73  18  12 W29G39    30.02F
GRANTS         FAIR      76  14   9 W16G26    30.01F
SILVER CITY      N/A     79  16   9 SW12G26   30.05F

$$
NMZ407-409-411-412-242300-
SOUTHERN DESERTS

CITY           SKY/WX    TMP DP  RH WIND       PRES   REMARKS
LORDSBURG      FAIR      86  21   9 SW14G30   29.96F
DEMING         FAIR      87  19   8 W20G31    29.96F
HOLLOMAN AFB   FAIR      88  17   7 SW22G30   29.93F
ALAMOGORDO     FAIR      88  18   7 SW16G24   29.95F
T OR C         FAIR      85  15   7 S17G31    29.93F

$$
NMZ519>523-242300-
CENTRAL VALLEYS/CENTRAL HIGHLANDS

CITY           SKY/WX    TMP DP  RH WIND       PRES   REMARKS
ALBUQUERQUE    FAIR      83  15   8 SW23G38   29.93F
DOUBLE EAGLE   MOSUNNY   81  19  10 SW21      29.96F
CLINES CORNERS FAIR      74  15  10 SW16G32   30.04F
BELEN          FAIR      85  13   7 S20G25    29.93F
SOCORRO        NOT AVBL

$$
NMZ524>526-539-540-242300-
SOUTHCENTRAL MOUNTAINS

CITY           SKY/WX    TMP DP  RH WIND       PRES   REMARKS
RUIDOSO        NOT AVBL

$$
NMZ527>531-242300-
NORTHEAST HIGHLANDS/NORTHEAST PLAINS

CITY           SKY/WX    TMP DP  RH WIND       PRES   REMARKS
LAS VEGAS      FAIR      75  14  10 W21G37    30.01F
RATON          FAIR      77  20  12 S30G40    29.89F
CLAYTON        FAIR      85  26  11 S18G29    29.87F

$$
NMZ532>537-242300-
EASTCENTRAL PLAINS

CITY           SKY/WX    TMP DP  RH WIND       PRES   REMARKS
TUCUMCARI      FAIR      92  13   5 SW25G35   29.83F
CANNON AFB     NOT AVBL
CLOVIS AIRPORT FAIR      88  27  11 SW15G26   29.89F

$$
NMZ028-029-538-242300-
SOUTHEAST PLAINS

CITY           SKY/WX    TMP DP  RH WIND       PRES   REMARKS
ROSWELL        FAIR      95  17   6 SW25G35   29.84F
ARTESIA        FAIR      93  21   7 SW22      29.87F
CARLSBAD       FAIR      94  15   5 W16G25    29.86F
HOBBS          SUNNY     90  18   7 SW13G18   29.93F


$$



USA.gov is the U.S. government's official web portal to all federal, state and local government web resources and services.